Location: Palo Alto
(37.4420°N, 122.1420°W)
Time: 10:01:32
(UTC-07:00)

ARGOS - Visible Passes

Search period start: 25 September 2017 00:00
Search period end: 05 October 2017 00:00
Orbit: 821 x 834 km, 98.6° (Epoch: 25 September)

Date Brightness Start Highest point End Pass type
(mag) Time Alt. Az. Time Alt. Az. Time Alt. Az.
25 Sep 5.3 20:46:56 11° NE 20:46:56 11° NE 20:47:14 10° NE visible
25 Sep 5.4 22:28:27 18° NNW 22:28:27 18° NNW 22:29:51 10° NNW visible
26 Sep 5.3 22:09:47 19° N 22:09:47 19° N 22:11:16 10° N visible
27 Sep 5.2 21:51:07 18° N 21:51:07 18° N 21:52:33 10° N visible
28 Sep 5.2 21:32:27 16° NNE 21:32:27 16° NNE 21:33:41 10° N visible
29 Sep 5.3 21:13:48 13° NNE 21:13:48 13° NNE 21:14:37 10° NNE visible
29 Sep 6.0 22:55:19 12° NNW 22:55:19 12° NNW 22:55:38 10° NNW visible
30 Sep 5.4 20:55:08 10° NNE 20:55:08 10° NNE 20:55:14 10° NNE visible
30 Sep 5.8 22:36:39 13° NNW 22:36:39 13° NNW 22:37:15 10° NNW visible
01 Oct 5.7 22:17:59 14° N 22:17:59 14° N 22:18:43 10° N visible
02 Oct 5.6 21:59:20 14° N 21:59:20 14° N 22:00:04 10° N visible
03 Oct 5.5 21:40:40 13° N 21:40:40 13° N 21:41:16 10° N visible
04 Oct 5.5 21:22:00 11° NNE 21:22:00 11° NNE 21:22:18 10° NNE visible
